Location: Omaha
(41.2590°N, 95.9380°W)
Time: 18:50:53
(UTC-06:00)

Envisat - Pass Details

Date: 14 October 2017
Orbit: 764 x 766 km, 98.2° (Epoch: 14 December)

Event Time Altitude Azimuth Distance (km) Brightness Sun altitude
Exits shadow 22:40:32 12° 292° (WNW) 2,171 5.9 -43.6°
Drops below altitude 10° 22:41:22 10° 301° (WNW) 2,309 6.1 -43.7°
Sets 22:44:53 0° 327° (NNW) 3,242 6.9 -44.3°
